Time,TemperatureF,DewpointF,PressureIn,WindDirection,WindDirectionDegrees,WindSpeedMPH,WindSpeedGustMPH,Humidity,HourlyPrecipIn,Conditions,Clouds,dailyrainin,SoftwareType,DateUTC
2013-07-17 00:04:00,79.9,59.6,29.65,East,90,0.0,0.0,50,0.00,,,0.00,VWS V13.01,2013-07-17 05:04:00,
2013-07-17 00:09:00,80.1,59.8,29.65,East,90,0.0,0.0,50,0.00,,,0.00,VWS V13.01,2013-07-17 05:09:00,
2013-07-17 00:14:00,80.1,59.8,29.65,East,90,0.0,0.0,50,0.00,,,0.00,VWS V13.01,2013-07-17 05:14:00,
2013-07-17 00:19:00,80.1,59.8,29.65,East,90,0.0,0.0,50,0.00,,,0.00,VWS V13.01,2013-07-17 05:19:00,
2013-07-17 00:24:00,79.9,59.6,29.68,East,90,0.0,0.0,50,0.00,,,0.00,VWS V13.01,2013-07-17 05:24:00,
2013-07-17 00:29:00,79.9,60.2,29.68,East,90,0.0,0.0,51,0.00,,,0.00,VWS V13.01,2013-07-17 05:29:00,
2013-07-17 00:34:00,80.1,60.3,29.68,East,90,0.0,0.0,51,0.00,,,0.00,VWS V13.01,2013-07-17 05:34:00,
2013-07-17 00:39:00,79.9,60.2,29.65,East,90,0.0,0.0,51,0.00,,,0.00,VWS V13.01,2013-07-17 05:39:00,
2013-07-17 00:44:00,79.9,60.2,29.65,East,90,0.0,0.0,51,0.00,,,0.00,VWS V13.01,2013-07-17 05:44:00,
2013-07-17 00:49:00,79.7,60.0,29.65,East,90,0.0,0.0,51,0.00,,,0.00,VWS V13.01,2013-07-17 05:49:00,
2013-07-17 00:54:00,79.7,60.0,29.65,East,90,0.0,0.0,51,0.00,,,0.00,VWS V13.01,2013-07-17 05:54:00,
2013-07-17 01:00:00,79.7,60.0,29.65,East,90,0.0,0.0,51,0.00,,,0.00,VWS V13.01,2013-07-17 06:00:00,
2013-07-17 01:05:00,79.5,59.8,29.65,East,90,0.0,0.0,51,0.00,,,0.00,VWS V13.01,2013-07-17 06:05:00,
2013-07-17 01:11:00,79.5,60.4,29.68,East,90,0.0,0.0,52,0.00,,,0.00,VWS V13.01,2013-07-17 06:11:00,
2013-07-17 01:16:00,79.5,60.4,29.68,East,90,0.0,0.0,52,0.00,,,0.00,VWS V13.01,2013-07-17 06:16:00,
2013-07-17 01:21:00,79.3,60.2,29.65,East,90,0.0,0.0,52,0.00,,,0.00,VWS V13.01,2013-07-17 06:21:00,
2013-07-17 01:26:00,79.3,60.2,29.65,East,90,0.0,0.0,52,0.00,,,0.00,VWS V13.01,2013-07-17 06:26:00,
2013-07-17 01:31:00,79.2,60.6,29.65,East,90,0.0,0.0,53,0.00,,,0.00,VWS V13.01,2013-07-17 06:31:00,
2013-07-17 01:36:00,79.2,61.1,29.68,East,90,0.0,0.0,54,0.00,,,0.00,VWS V13.01,2013-07-17 06:36:00,
2013-07-17 01:41:00,79.0,60.9,29.68,East,90,0.0,0.0,54,0.00,,,0.00,VWS V13.01,2013-07-17 06:41:00,
2013-07-17 01:46:00,79.0,61.5,29.68,East,90,0.0,0.0,55,0.00,,,0.00,VWS V13.01,2013-07-17 06:46:00,
2013-07-17 01:51:00,78.8,61.8,29.68,East,90,0.0,0.0,56,0.00,,,0.00,VWS V13.01,2013-07-17 06:51:00,
2013-07-17 01:56:00,78.6,62.1,29.68,East,90,0.0,0.0,57,0.00,,,0.00,VWS V13.01,2013-07-17 06:56:00,
2013-07-17 02:01:00,78.4,62.9,29.68,East,90,0.0,0.0,59,0.00,,,0.00,VWS V13.01,2013-07-17 07:01:00,
2013-07-17 02:06:00,78.4,63.9,29.68,East,90,0.0,0.0,61,0.00,,,0.00,VWS V13.01,2013-07-17 07:06:00,
2013-07-17 02:11:00,78.3,65.1,29.68,East,90,0.0,0.0,64,0.00,,,0.00,VWS V13.01,2013-07-17 07:11:00,
2013-07-17 02:16:00,78.1,65.8,29.68,East,90,0.0,0.0,66,0.00,,,0.00,VWS V13.01,2013-07-17 07:16:00,
2013-07-17 02:22:00,78.1,66.7,29.68,East,90,0.0,0.0,68,0.00,,,0.00,VWS V13.01,2013-07-17 07:22:00,
2013-07-17 02:27:00,77.9,67.3,29.68,East,90,0.0,0.0,70,0.00,,,0.00,VWS V13.01,2013-07-17 07:27:00,
2013-07-17 02:32:00,77.9,67.8,29.68,East,90,0.0,0.0,71,0.00,,,0.00,VWS V13.01,2013-07-17 07:32:00,
2013-07-17 02:37:00,78.1,68.7,29.68,East,90,0.0,0.0,73,0.00,,,0.00,VWS V13.01,2013-07-17 07:37:00,
2013-07-17 02:42:00,78.3,70.5,29.68,East,90,0.0,0.0,77,0.00,,,0.00,VWS V13.01,2013-07-17 07:42:00,
2013-07-17 02:47:00,78.3,72.3,29.68,East,90,0.0,0.0,82,0.00,,,0.00,VWS V13.01,2013-07-17 07:47:00,
2013-07-17 02:52:00,78.3,73.0,29.68,East,90,0.0,0.0,84,0.00,,,0.00,VWS V13.01,2013-07-17 07:52:00,
2013-07-17 02:57:00,78.4,73.9,29.68,East,90,0.0,0.0,86,0.00,,,0.00,VWS V13.01,2013-07-17 07:57:00,
2013-07-17 03:02:00,78.4,74.2,29.68,East,90,0.0,0.0,87,0.00,,,0.00,VWS V13.01,2013-07-17 08:02:00,
2013-07-17 03:07:00,78.6,74.4,29.68,East,90,0.0,0.0,87,0.00,,,0.00,VWS V13.01,2013-07-17 08:07:00,
2013-07-17 03:12:00,79.0,74.8,29.68,East,90,0.0,0.0,87,0.00,,,0.00,VWS V13.01,2013-07-17 08:12:00,
2013-07-17 03:17:00,79.0,75.1,29.68,East,90,0.0,0.0,88,0.00,,,0.00,VWS V13.01,2013-07-17 08:17:00,
2013-07-17 03:22:00,79.2,75.3,29.68,East,90,0.0,0.0,88,0.00,,,0.00,VWS V13.01,2013-07-17 08:22:00,
2013-07-17 03:28:00,79.0,75.1,29.68,East,90,0.0,0.0,88,0.00,,,0.00,VWS V13.01,2013-07-17 08:28:00,
2013-07-17 03:33:00,78.8,74.9,29.68,East,90,0.0,0.0,88,0.00,,,0.00,VWS V13.01,2013-07-17 08:33:00,
2013-07-17 03:38:00,78.8,74.9,29.68,East,90,0.0,0.0,88,0.00,,,0.00,VWS V13.01,2013-07-17 08:38:00,
2013-07-17 03:43:00,78.8,74.9,29.68,East,90,0.0,0.0,88,0.00,,,0.00,VWS V13.01,2013-07-17 08:43:00,
2013-07-17 03:48:00,78.8,74.6,29.68,East,90,0.0,0.0,87,0.00,,,0.00,VWS V13.01,2013-07-17 08:48:00,
2013-07-17 03:53:00,78.6,74.4,29.68,East,90,0.0,0.0,87,0.00,,,0.00,VWS V13.01,2013-07-17 08:53:00,
2013-07-17 03:58:00,78.6,74.4,29.68,East,90,0.0,0.0,87,0.00,,,0.00,VWS V13.01,2013-07-17 08:58:00,
2013-07-17 04:03:00,78.4,73.9,29.68,East,90,0.0,0.0,86,0.00,,,0.00,VWS V13.01,2013-07-17 09:03:00,
2013-07-17 04:08:00,78.4,73.9,29.68,East,90,0.0,0.0,86,0.00,,,0.00,VWS V13.01,2013-07-17 09:08:00,
2013-07-17 04:13:00,78.3,73.7,29.68,East,90,0.0,0.0,86,0.00,,,0.00,VWS V13.01,2013-07-17 09:13:00,
2013-07-17 04:18:00,78.4,73.9,29.68,East,90,0.0,0.0,86,0.00,,,0.00,VWS V13.01,2013-07-17 09:18:00,
2013-07-17 04:23:00,78.4,73.9,29.68,East,90,0.0,0.0,86,0.00,,,0.00,VWS V13.01,2013-07-17 09:23:00,
2013-07-17 04:28:00,78.4,73.9,29.68,East,90,0.0,0.0,86,0.00,,,0.00,VWS V13.01,2013-07-17 09:28:00,
2013-07-17 04:33:00,78.6,74.1,29.68,East,90,0.0,0.0,86,0.00,,,0.00,VWS V13.01,2013-07-17 09:33:00,
2013-07-17 04:38:00,79.0,74.8,29.68,East,90,0.0,0.0,87,0.00,,,0.00,VWS V13.01,2013-07-17 09:38:00,
2013-07-17 04:43:00,79.9,75.7,29.68,East,90,0.0,0.0,87,0.00,,,0.00,VWS V13.01,2013-07-17 09:43:00,
2013-07-17 04:48:00,80.6,76.4,29.68,East,90,0.0,0.0,87,0.00,,,0.00,VWS V13.01,2013-07-17 09:48:00,
2013-07-17 04:53:00,81.3,77.1,29.68,East,90,0.0,0.0,87,0.00,,,0.00,VWS V13.01,2013-07-17 09:53:00,
2013-07-17 04:58:00,81.7,77.4,29.68,East,90,0.0,0.0,87,0.00,,,0.00,VWS V13.01,2013-07-17 09:58:00,
2013-07-17 05:03:00,82.0,77.8,29.68,East,90,0.0,0.0,87,0.00,,,0.00,VWS V13.01,2013-07-17 10:03:00,
2013-07-17 05:08:00,82.0,77.8,29.68,East,90,0.0,0.0,87,0.00,,,0.00,VWS V13.01,2013-07-17 10:08:00,
2013-07-17 05:13:00,81.9,78.0,29.68,East,90,0.0,0.0,88,0.00,,,0.00,VWS V13.01,2013-07-17 10:13:00,
2013-07-17 05:18:00,81.5,77.6,29.68,East,90,0.0,0.0,88,0.00,,,0.00,VWS V13.01,2013-07-17 10:18:00,
2013-07-17 05:23:00,81.1,77.2,29.68,East,90,0.0,0.0,88,0.00,,,0.00,VWS V13.01,2013-07-17 10:23:00,
2013-07-17 05:28:00,80.8,76.9,29.68,East,90,0.0,0.0,88,0.00,,,0.00,VWS V13.01,2013-07-17 10:28:00,
2013-07-17 05:33:00,80.2,76.7,29.68,East,90,0.0,0.0,89,0.00,,,0.00,VWS V13.01,2013-07-17 10:33:00,
2013-07-17 05:38:00,80.2,76.7,29.68,East,90,0.0,0.0,89,0.00,,,0.00,VWS V13.01,2013-07-17 10:38:00,
2013-07-17 05:43:00,80.1,76.2,29.68,East,90,0.0,0.0,88,0.00,,,0.00,VWS V13.01,2013-07-17 10:43:00,
2013-07-17 05:49:00,80.1,76.2,29.68,East,90,0.0,0.0,88,0.00,,,0.00,VWS V13.01,2013-07-17 10:49:00,
2013-07-17 05:54:00,80.1,76.2,29.68,East,90,0.0,0.0,88,0.00,,,0.00,VWS V13.01,2013-07-17 10:54:00,
2013-07-17 05:59:00,80.1,76.2,29.68,East,90,0.0,0.0,88,0.00,,,0.00,VWS V13.01,2013-07-17 10:59:00,
2013-07-17 06:04:00,80.2,76.4,29.68,East,90,0.0,0.0,88,0.00,,,0.00,VWS V13.01,2013-07-17 11:04:00,
2013-07-17 06:09:00,80.6,76.7,29.68,East,90,0.0,0.0,88,0.00,,,0.00,VWS V13.01,2013-07-17 11:09:00,
2013-07-17 06:14:00,80.6,76.7,29.68,East,90,0.0,0.0,88,0.00,,,0.00,VWS V13.01,2013-07-17 11:14:00,
2013-07-17 06:19:00,80.6,76.7,29.68,East,90,0.0,0.0,88,0.00,,,0.00,VWS V13.01,2013-07-17 11:19:00,
2013-07-17 06:24:00,80.6,76.7,29.71,East,90,0.0,0.0,88,0.00,,,0.00,VWS V13.01,2013-07-17 11:24:00,
2013-07-17 06:29:00,80.6,76.7,29.71,East,90,0.0,0.0,88,0.00,,,0.00,VWS V13.01,2013-07-17 11:29:00,
2013-07-17 06:34:00,80.8,76.9,29.71,East,90,0.0,0.0,88,0.00,,,0.00,VWS V13.01,2013-07-17 11:34:00,
2013-07-17 06:39:00,80.6,76.7,29.71,East,90,0.0,0.0,88,0.00,,,0.00,VWS V13.01,2013-07-17 11:39:00,
2013-07-17 06:44:00,80.6,76.7,29.71,East,90,0.0,0.0,88,0.00,,,0.00,VWS V13.01,2013-07-17 11:44:00,
2013-07-17 06:49:00,80.4,76.5,29.71,East,90,0.0,0.0,88,0.00,,,0.00,VWS V13.01,2013-07-17 11:49:00,
2013-07-17 06:54:00,80.2,76.4,29.71,East,90,0.0,0.0,88,0.00,,,0.00,VWS V13.01,2013-07-17 11:54:00,
2013-07-17 06:59:00,80.1,75.8,29.71,East,90,0.0,0.0,87,0.00,,,0.00,VWS V13.01,2013-07-17 11:59:00,
2013-07-17 07:04:00,80.1,75.8,29.71,East,90,0.0,0.0,87,0.00,,,0.00,VWS V13.01,2013-07-17 12:04:00,
2013-07-17 07:09:00,80.1,75.8,29.71,East,90,0.0,0.0,87,0.00,,,0.00,VWS V13.01,2013-07-17 12:09:00,
2013-07-17 07:15:00,80.1,75.5,29.71,East,90,0.0,0.0,86,0.00,,,0.00,VWS V13.01,2013-07-17 12:15:00,
2013-07-17 07:20:00,80.1,75.2,29.71,East,90,0.0,0.0,85,0.00,,,0.00,VWS V13.01,2013-07-17 12:20:00,
2013-07-17 07:25:00,80.1,74.8,29.71,East,90,0.0,0.0,84,0.00,,,0.00,VWS V13.01,2013-07-17 12:25:00,
2013-07-17 07:30:00,80.1,73.7,29.71,East,90,0.0,0.0,81,0.00,,,0.00,VWS V13.01,2013-07-17 12:30:00,
2013-07-17 07:35:00,80.1,72.6,29.71,East,90,0.0,0.0,78,0.00,,,0.00,VWS V13.01,2013-07-17 12:35:00,
2013-07-17 07:40:00,80.4,72.2,29.71,East,90,0.0,0.0,76,0.00,,,0.00,VWS V13.01,2013-07-17 12:40:00,
2013-07-17 07:45:00,80.6,71.9,29.71,East,90,0.0,0.0,75,0.00,,,0.00,VWS V13.01,2013-07-17 12:45:00,
2013-07-17 07:50:00,81.5,72.8,29.71,East,90,0.0,0.0,75,0.00,,,0.00,VWS V13.01,2013-07-17 12:50:00,
2013-07-17 07:55:00,82.4,72.5,29.71,East,90,0.0,0.0,72,0.00,,,0.00,VWS V13.01,2013-07-17 12:55:00,
2013-07-17 08:00:00,83.1,71.5,29.71,East,90,0.0,0.0,68,0.00,,,0.00,VWS V13.01,2013-07-17 13:00:00,
2013-07-17 08:05:00,84.9,71.8,29.71,East,90,0.0,0.0,65,0.00,,,0.00,VWS V13.01,2013-07-17 13:05:00,
2013-07-17 08:10:00,85.6,69.7,29.71,East,90,0.0,0.0,59,0.00,,,0.00,VWS V13.01,2013-07-17 13:10:00,
2013-07-17 08:15:00,86.0,69.5,29.71,East,90,0.0,0.0,58,0.00,,,0.00,VWS V13.01,2013-07-17 13:15:00,
2013-07-17 08:20:00,86.4,68.3,29.71,South,180,0.0,0.0,55,0.00,,,0.00,VWS V13.01,2013-07-17 13:20:00,
2013-07-17 08:25:00,86.4,68.3,29.71,South,180,0.0,0.0,55,0.00,,,0.00,VWS V13.01,2013-07-17 13:25:00,
2013-07-17 08:30:00,87.1,68.4,29.71,West,270,0.0,0.0,54,0.00,,,0.00,VWS V13.01,2013-07-17 13:30:00,
2013-07-17 08:35:00,87.1,69.0,29.71,West,270,0.0,0.0,55,0.00,,,0.00,VWS V13.01,2013-07-17 13:35:00,
2013-07-17 08:40:00,87.3,67.5,29.71,SW,225,0.0,0.0,52,0.00,,,0.00,VWS V13.01,2013-07-17 13:40:00,
2013-07-17 08:45:00,87.4,67.7,29.71,West,270,0.0,0.0,52,0.00,,,0.00,VWS V13.01,2013-07-17 13:45:00,
2013-07-17 08:50:00,88.2,67.8,29.71,West,270,0.0,0.0,51,0.00,,,0.00,VWS V13.01,2013-07-17 13:50:00,
2013-07-17 08:55:00,88.2,67.8,29.74,West,270,0.0,0.0,51,0.00,,,0.00,VWS V13.01,2013-07-17 13:55:00,
2013-07-17 09:00:00,88.3,67.9,29.74,NW,315,0.0,0.0,51,0.00,,,0.00,VWS V13.01,2013-07-17 14:00:00,
2013-07-17 09:05:00,88.5,66.9,29.74,NW,315,0.0,0.0,49,0.00,,,0.00,VWS V13.01,2013-07-17 14:05:00,
2013-07-17 09:10:00,88.9,67.3,29.71,NW,315,0.0,0.0,49,0.00,,,0.00,VWS V13.01,2013-07-17 14:10:00,
2013-07-17 09:16:00,89.8,66.9,29.71,NW,315,0.0,0.0,47,0.00,,,0.00,VWS V13.01,2013-07-17 14:16:00,
2013-07-17 09:21:00,90.0,66.4,29.71,NW,315,0.0,0.0,46,0.00,,,0.00,VWS V13.01,2013-07-17 14:21:00,
2013-07-17 09:26:00,89.4,66.6,29.71,NW,315,0.0,0.0,47,0.00,,,0.00,VWS V13.01,2013-07-17 14:26:00,
2013-07-17 09:31:00,89.4,65.9,29.71,West,270,0.0,0.0,46,0.00,,,0.00,VWS V13.01,2013-07-17 14:31:00,
2013-07-17 09:36:00,89.6,65.5,29.71,NW,315,0.0,0.0,45,0.00,,,0.00,VWS V13.01,2013-07-17 14:36:00,
2013-07-17 09:41:00,89.6,65.5,29.71,NW,315,0.0,0.0,45,0.00,,,0.00,VWS V13.01,2013-07-17 14:41:00,
2013-07-17 09:46:00,90.3,65.5,29.71,NW,315,0.0,0.0,44,0.00,,,0.00,VWS V13.01,2013-07-17 14:46:00,
2013-07-17 09:51:00,90.1,65.3,29.74,West,270,0.0,0.0,44,0.00,,,0.00,VWS V13.01,2013-07-17 14:51:00,
2013-07-17 09:56:00,90.1,64.7,29.74,NW,315,0.0,0.0,43,0.00,,,0.00,VWS V13.01,2013-07-17 14:56:00,
2013-07-17 10:01:00,90.1,65.3,29.74,NW,315,0.0,0.0,44,0.00,,,0.00,VWS V13.01,2013-07-17 15:01:00,
2013-07-17 10:06:00,90.1,64.0,29.74,NW,315,0.0,0.0,42,0.00,,,0.00,VWS V13.01,2013-07-17 15:06:00,
2013-07-17 10:11:00,89.4,63.3,29.74,NW,315,0.0,0.0,42,0.00,,,0.00,VWS V13.01,2013-07-17 15:11:00,
2013-07-17 10:16:00,90.0,63.1,29.74,NW,315,0.0,0.0,41,0.00,,,0.00,VWS V13.01,2013-07-17 15:16:00,
2013-07-17 10:22:00,90.9,63.9,29.74,NW,315,0.0,0.0,41,0.00,,,0.00,VWS V13.01,2013-07-17 15:22:00,
2013-07-17 10:27:00,91.4,62.2,29.74,WNW,292,0.0,0.0,38,0.00,,,0.00,VWS V13.01,2013-07-17 15:27:00,
2013-07-17 10:32:00,91.9,62.7,29.74,West,270,0.0,0.0,38,0.00,,,0.00,VWS V13.01,2013-07-17 15:32:00,
2013-07-17 10:37:00,91.6,59.3,29.74,West,270,0.0,0.0,34,0.00,,,0.00,VWS V13.01,2013-07-17 15:37:00,
2013-07-17 10:42:00,92.3,59.1,29.74,West,270,0.0,0.0,33,0.00,,,0.00,VWS V13.01,2013-07-17 15:42:00,
2013-07-17 10:47:00,92.5,60.1,29.74,NW,315,0.0,0.0,34,0.00,,,0.00,VWS V13.01,2013-07-17 15:47:00,
2013-07-17 10:52:00,92.1,58.0,29.74,NW,315,0.0,0.0,32,0.00,,,0.00,VWS V13.01,2013-07-17 15:52:00,
2013-07-17 10:57:00,92.5,58.4,29.74,North,0,0.0,0.0,32,0.00,,,0.00,VWS V13.01,2013-07-17 15:57:00,
2013-07-17 11:02:00,91.9,55.2,29.74,North,0,0.0,0.0,29,0.00,,,0.00,VWS V13.01,2013-07-17 16:02:00,
2013-07-17 11:07:00,92.1,53.4,29.74,North,0,0.0,0.0,27,0.00,,,0.00,VWS V13.01,2013-07-17 16:07:00,
2013-07-17 11:12:00,91.9,54.2,29.74,West,270,0.0,0.0,28,0.00,,,0.00,VWS V13.01,2013-07-17 16:12:00,
2013-07-17 11:17:00,92.1,52.3,29.74,West,270,0.0,0.0,26,0.00,,,0.00,VWS V13.01,2013-07-17 16:17:00,
2013-07-17 11:22:00,92.3,49.2,29.74,NW,315,0.0,0.0,23,0.00,,,0.00,VWS V13.01,2013-07-17 16:22:00,
2013-07-17 11:27:00,94.1,48.2,29.74,NW,315,0.0,0.0,21,0.00,,,0.00,VWS V13.01,2013-07-17 16:27:00,
2013-07-17 11:32:00,93.4,46.4,29.74,West,270,0.0,0.0,20,0.00,,,0.00,VWS V13.01,2013-07-17 16:32:00,
2013-07-17 11:37:00,93.4,45.0,29.74,North,0,0.0,0.0,19,0.00,,,0.00,VWS V13.01,2013-07-17 16:37:00,
2013-07-17 11:42:00,91.9,48.9,29.74,NW,315,0.0,2.2,23,0.00,,,0.00,VWS V13.01,2013-07-17 16:42:00,
2013-07-17 11:47:00,90.1,49.6,29.74,West,270,0.0,7.2,25,0.00,,,0.00,VWS V13.01,2013-07-17 16:47:00,
2013-07-17 11:52:00,90.0,49.5,29.71,NW,315,0.0,0.0,25,0.00,,,0.00,VWS V13.01,2013-07-17 16:52:00,
2013-07-17 11:57:00,90.3,51.8,29.71,West,270,3.1,3.1,27,0.00,,,0.00,VWS V13.01,2013-07-17 16:57:00,
2013-07-17 12:02:00,90.1,49.6,29.71,NW,315,0.0,0.0,25,0.00,,,0.00,VWS V13.01,2013-07-17 17:02:00,
2013-07-17 12:07:00,90.0,49.5,29.71,North,0,0.0,0.0,25,0.00,,,0.00,VWS V13.01,2013-07-17 17:07:00,
2013-07-17 12:12:00,90.7,47.8,29.71,North,0,0.0,0.0,23,0.00,,,0.00,VWS V13.01,2013-07-17 17:12:00,
2013-07-17 12:17:00,90.1,46.2,29.71,East,90,3.1,3.1,22,0.00,,,0.00,VWS V13.01,2013-07-17 17:17:00,
2013-07-17 12:22:00,90.0,47.2,29.71,East,90,0.0,0.0,23,0.00,,,0.00,VWS V13.01,2013-07-17 17:22:00,
2013-07-17 12:27:00,90.3,46.3,29.71,East,90,0.0,0.0,22,0.00,,,0.00,VWS V13.01,2013-07-17 17:27:00,
2013-07-17 12:32:00,90.9,48.0,29.71,NE,45,0.0,0.0,23,0.00,,,0.00,VWS V13.01,2013-07-17 17:32:00,
2013-07-17 12:37:00,91.6,46.2,29.71,NE,45,0.0,0.0,21,0.00,,,0.00,VWS V13.01,2013-07-17 17:37:00,
2013-07-17 12:42:00,91.9,45.2,29.71,North,0,0.0,0.0,20,0.00,,,0.00,VWS V13.01,2013-07-17 17:42:00,
2013-07-17 12:47:00,93.4,43.6,29.71,East,90,0.0,0.0,18,0.00,,,0.00,VWS V13.01,2013-07-17 17:47:00,
2013-07-17 12:53:00,93.0,43.3,29.71,NE,45,0.0,0.0,18,0.00,,,0.00,VWS V13.01,2013-07-17 17:53:00,
2013-07-17 12:58:00,94.5,43.0,29.71,NE,45,0.0,0.0,17,0.00,,,0.00,VWS V13.01,2013-07-17 17:58:00,
2013-07-17 13:03:00,95.5,42.2,29.71,NE,45,0.0,0.0,16,0.00,,,0.00,VWS V13.01,2013-07-17 18:03:00,
2013-07-17 13:08:00,94.5,38.0,29.71,East,90,0.0,4.0,14,0.00,,,0.00,VWS V13.01,2013-07-17 18:08:00,
2013-07-17 13:13:00,95.2,38.5,29.71,North,0,0.0,0.0,14,0.00,,,0.00,VWS V13.01,2013-07-17 18:13:00,
2013-07-17 13:18:00,95.4,38.7,29.71,ENE,68,0.0,0.0,14,0.00,,,0.00,VWS V13.01,2013-07-17 18:18:00,
2013-07-17 13:23:00,95.9,39.1,29.71,East,90,0.0,0.0,14,0.00,,,0.00,VWS V13.01,2013-07-17 18:23:00,
2013-07-17 13:28:00,96.3,39.4,29.71,East,90,0.0,0.0,14,0.00,,,0.00,VWS V13.01,2013-07-17 18:28:00,
2013-07-17 13:33:00,95.2,32.5,29.71,East,90,0.0,0.0,11,0.00,,,0.00,VWS V13.01,2013-07-17 18:33:00,
2013-07-17 13:38:00,95.9,33.0,29.68,East,90,0.0,0.0,11,0.00,,,0.00,VWS V13.01,2013-07-17 18:38:00,
2013-07-17 13:43:00,97.2,34.0,29.68,East,90,0.0,0.0,11,0.00,,,0.00,VWS V13.01,2013-07-17 18:43:00,
2013-07-17 13:48:00,96.6,33.6,29.68,East,90,0.0,0.0,11,0.00,,,0.00,VWS V13.01,2013-07-17 18:48:00,
2013-07-17 13:53:00,97.5,34.2,29.68,NE,45,0.0,0.0,11,0.00,,,0.00,VWS V13.01,2013-07-17 18:53:00,
2013-07-17 13:58:00,97.5,38.5,29.68,NE,45,0.0,0.0,13,0.00,,,0.00,VWS V13.01,2013-07-17 18:58:00,
2013-07-17 14:03:00,97.5,34.2,29.68,NE,45,0.0,0.0,11,0.00,,,0.00,VWS V13.01,2013-07-17 19:03:00,
2013-07-17 14:05:00,97.7,34.4,29.68,NNW,338,0.0,0.0,11,0.00,,,0.00,VWS V13.01,2013-07-17 19:05:00,
2013-07-17 14:10:00,97.2,34.0,29.68,NW,315,0.0,0.0,11,0.00,,,0.00,VWS V13.01,2013-07-17 19:10:00,
2013-07-17 14:15:00,97.5,34.2,29.68,NW,315,0.0,0.0,11,0.00,,,0.00,VWS V13.01,2013-07-17 19:15:00,
2013-07-17 14:20:00,96.6,33.6,29.65,East,90,0.0,0.0,11,0.00,,,0.00,VWS V13.01,2013-07-17 19:20:00,
2013-07-17 14:25:00,93.6,43.7,29.65,East,90,3.1,8.3,18,0.00,,,0.00,VWS V13.01,2013-07-17 19:25:00,
2013-07-17 14:30:00,92.7,44.4,29.65,East,90,0.0,4.9,19,0.00,,,0.00,VWS V13.01,2013-07-17 19:30:00,
2013-07-17 14:36:00,91.8,47.5,29.65,East,90,0.0,2.7,22,0.00,,,0.00,VWS V13.01,2013-07-17 19:36:00,
2013-07-17 14:41:00,91.6,51.9,29.65,East,90,0.0,0.0,26,0.00,,,0.00,VWS V13.01,2013-07-17 19:41:00,
2013-07-17 14:46:00,92.1,53.4,29.65,East,90,0.0,0.0,27,0.00,,,0.00,VWS V13.01,2013-07-17 19:46:00,
2013-07-17 14:51:00,93.0,52.0,29.65,East,90,0.0,0.0,25,0.00,,,0.00,VWS V13.01,2013-07-17 19:51:00,
2013-07-17 14:56:00,93.2,48.7,29.65,East,90,0.0,0.0,22,0.00,,,0.00,VWS V13.01,2013-07-17 19:56:00,
2013-07-17 15:01:00,92.8,45.9,29.65,East,90,0.0,0.0,20,0.00,,,0.00,VWS V13.01,2013-07-17 20:01:00,
2013-07-17 15:06:00,92.8,45.9,29.65,East,90,0.0,0.0,20,0.00,,,0.00,VWS V13.01,2013-07-17 20:06:00,
2013-07-17 15:11:00,93.0,44.7,29.65,East,90,0.0,4.0,19,0.00,,,0.00,VWS V13.01,2013-07-17 20:11:00,
2013-07-17 15:16:00,92.8,45.9,29.65,East,90,0.0,0.0,20,0.00,,,0.00,VWS V13.01,2013-07-17 20:16:00,
2013-07-17 15:21:00,92.5,45.6,29.65,East,90,0.0,0.0,20,0.00,,,0.00,VWS V13.01,2013-07-17 20:21:00,
2013-07-17 15:26:00,93.2,43.4,29.65,SSE,158,0.0,0.0,18,0.00,,,0.00,VWS V13.01,2013-07-17 20:26:00,
2013-07-17 15:32:00,93.2,43.4,29.65,SE,135,0.0,0.0,18,0.00,,,0.00,VWS V13.01,2013-07-17 20:32:00,
2013-07-17 15:37:00,93.9,44.0,29.62,SE,135,0.0,0.0,18,0.00,,,0.00,VWS V13.01,2013-07-17 20:37:00,
2013-07-17 15:42:00,94.3,41.2,29.62,SE,135,0.0,0.0,16,0.00,,,0.00,VWS V13.01,2013-07-17 20:42:00,
2013-07-17 15:47:00,95.2,38.5,29.62,South,180,0.0,0.0,14,0.00,,,0.00,VWS V13.01,2013-07-17 20:47:00,
2013-07-17 15:52:00,96.1,39.2,29.62,South,180,0.0,0.0,14,0.00,,,0.00,VWS V13.01,2013-07-17 20:52:00,
2013-07-17 15:57:00,95.7,39.0,29.62,South,180,0.0,0.0,14,0.00,,,0.00,VWS V13.01,2013-07-17 20:57:00,
2013-07-17 16:02:00,94.6,43.1,29.62,SW,225,0.0,0.0,17,0.00,,,0.00,VWS V13.01,2013-07-17 21:02:00,
2013-07-17 16:07:00,93.2,43.4,29.62,SW,225,0.0,0.0,18,0.00,,,0.00,VWS V13.01,2013-07-17 21:07:00,
2013-07-17 16:12:00,92.3,44.1,29.62,SW,225,0.0,0.0,19,0.00,,,0.00,VWS V13.01,2013-07-17 21:12:00,
2013-07-17 16:17:00,93.4,45.0,29.62,SW,225,0.0,0.0,19,0.00,,,0.00,VWS V13.01,2013-07-17 21:17:00,
2013-07-17 16:23:00,93.7,42.4,29.62,West,270,0.0,0.0,17,0.00,,,0.00,VWS V13.01,2013-07-17 21:23:00,
2013-07-17 16:28:00,94.3,41.2,29.62,West,270,0.0,0.0,16,0.00,,,0.00,VWS V13.01,2013-07-17 21:28:00,
2013-07-17 16:33:00,95.0,41.8,29.62,SW,225,0.0,0.0,16,0.00,,,0.00,VWS V13.01,2013-07-17 21:33:00,
2013-07-17 16:38:00,96.1,42.7,29.62,SW,225,0.0,0.0,16,0.00,,,0.00,VWS V13.01,2013-07-17 21:38:00,
2013-07-17 16:43:00,97.5,38.5,29.62,West,270,0.0,0.0,13,0.00,,,0.00,VWS V13.01,2013-07-17 21:43:00,
2013-07-17 16:48:00,98.6,32.7,29.62,West,270,0.0,0.0,10,0.00,,,0.00,VWS V13.01,2013-07-17 21:48:00,
2013-07-17 16:53:00,97.5,34.2,29.62,SW,225,0.0,0.0,11,0.00,,,0.00,VWS V13.01,2013-07-17 21:53:00,
2013-07-17 16:58:00,97.3,34.1,29.62,NW,315,0.0,0.0,11,0.00,,,0.00,VWS V13.01,2013-07-17 21:58:00,
2013-07-17 17:03:00,97.2,34.0,29.62,West,270,0.0,0.0,11,0.00,,,0.00,VWS V13.01,2013-07-17 22:03:00,
2013-07-17 17:08:00,97.0,33.8,29.62,West,270,0.0,0.0,11,0.00,,,0.00,VWS V13.01,2013-07-17 22:08:00,
2013-07-17 17:13:00,95.9,33.0,29.59,West,270,0.0,0.0,11,0.00,,,0.00,VWS V13.01,2013-07-17 22:13:00,
2013-07-17 17:16:00,96.3,33.3,29.59,West,270,0.0,0.0,11,0.00,,,0.00,VWS V13.01,2013-07-17 22:16:00,
2013-07-17 17:21:00,97.0,33.8,29.59,West,270,0.0,0.0,11,0.00,,,0.00,VWS V13.01,2013-07-17 22:21:00,
2013-07-17 17:26:00,97.7,34.4,29.59,West,270,0.0,0.0,11,0.00,,,0.00,VWS V13.01,2013-07-17 22:26:00,
2013-07-17 17:31:00,97.9,34.5,29.59,West,270,0.0,0.0,11,0.00,,,0.00,VWS V13.01,2013-07-17 22:31:00,
2013-07-17 17:36:00,97.5,34.2,29.59,West,270,0.0,0.0,11,0.00,,,0.00,VWS V13.01,2013-07-17 22:36:00,
2013-07-17 17:41:00,97.0,33.8,29.59,NW,315,0.0,0.0,11,0.00,,,0.00,VWS V13.01,2013-07-17 22:41:00,
2013-07-17 17:46:00,97.5,34.2,29.59,NW,315,0.0,0.0,11,0.00,,,0.00,VWS V13.01,2013-07-17 22:46:00,
2013-07-17 17:51:00,96.6,33.6,29.59,NW,315,0.0,0.0,11,0.00,,,0.00,VWS V13.01,2013-07-17 22:51:00,
2013-07-17 17:56:00,97.0,33.8,29.59,NW,315,0.0,0.0,11,0.00,,,0.00,VWS V13.01,2013-07-17 22:56:00,
2013-07-17 18:01:00,96.3,33.3,29.59,NW,315,0.0,0.0,11,0.00,,,0.00,VWS V13.01,2013-07-17 23:01:00,
2013-07-17 18:06:00,95.9,33.0,29.59,NW,315,0.0,0.0,11,0.00,,,0.00,VWS V13.01,2013-07-17 23:06:00,
2013-07-17 18:11:00,95.7,32.9,29.59,NW,315,0.0,0.0,11,0.00,,,0.00,VWS V13.01,2013-07-17 23:11:00,
2013-07-17 18:16:00,95.9,33.0,29.59,NW,315,0.0,0.0,11,0.00,,,0.00,VWS V13.01,2013-07-17 23:16:00,
2013-07-17 18:21:00,95.7,32.9,29.59,NW,315,0.0,0.0,11,0.00,,,0.00,VWS V13.01,2013-07-17 23:21:00,
2013-07-17 18:26:00,95.0,32.3,29.59,NW,315,0.0,0.0,11,0.00,,,0.00,VWS V13.01,2013-07-17 23:26:00,
2013-07-17 18:31:00,94.3,31.8,29.59,NW,315,0.0,0.0,11,0.00,,,0.00,VWS V13.01,2013-07-17 23:31:00,
2013-07-17 18:36:00,94.5,31.9,29.59,NW,315,0.0,0.0,11,0.00,,,0.00,VWS V13.01,2013-07-17 23:36:00,
2013-07-17 18:41:00,94.3,31.8,29.59,NW,315,0.0,0.0,11,0.00,,,0.00,VWS V13.01,2013-07-17 23:41:00,
2013-07-17 18:46:00,94.3,31.8,29.59,East,90,0.0,0.0,11,0.00,,,0.00,VWS V13.01,2013-07-17 23:46:00,
2013-07-17 18:51:00,94.3,37.8,29.59,East,90,0.0,0.0,14,0.00,,,0.00,VWS V13.01,2013-07-17 23:51:00,
2013-07-17 18:56:00,94.5,38.0,29.59,East,90,0.0,0.0,14,0.00,,,0.00,VWS V13.01,2013-07-17 23:56:00,
2013-07-17 19:01:00,93.9,31.5,29.59,East,90,0.0,0.0,11,0.00,,,0.00,VWS V13.01,2013-07-18 00:01:00,
2013-07-17 19:06:00,93.9,31.5,29.56,NE,45,0.0,0.0,11,0.00,,,0.00,VWS V13.01,2013-07-18 00:06:00,
2013-07-17 19:11:00,94.5,31.9,29.56,NE,45,0.0,0.0,11,0.00,,,0.00,VWS V13.01,2013-07-18 00:11:00,
2013-07-17 19:16:00,93.4,31.1,29.56,East,90,0.0,0.0,11,0.00,,,0.00,VWS V13.01,2013-07-18 00:16:00,
2013-07-17 19:21:00,93.2,31.0,29.56,East,90,0.0,0.0,11,0.00,,,0.00,VWS V13.01,2013-07-18 00:21:00,
2013-07-17 19:26:00,93.6,31.2,29.56,East,90,0.0,0.0,11,0.00,,,0.00,VWS V13.01,2013-07-18 00:26:00,
2013-07-17 19:31:00,92.8,32.8,29.56,East,90,0.0,0.0,12,0.00,,,0.00,VWS V13.01,2013-07-18 00:31:00,
2013-07-17 19:37:00,92.7,36.5,29.56,East,90,0.0,0.0,14,0.00,,,0.00,VWS V13.01,2013-07-18 00:37:00,
2013-07-17 19:42:00,92.3,36.3,29.56,East,90,0.0,0.0,14,0.00,,,0.00,VWS V13.01,2013-07-18 00:42:00,
2013-07-17 19:47:00,92.3,36.3,29.56,East,90,0.0,0.0,14,0.00,,,0.00,VWS V13.01,2013-07-18 00:47:00,
2013-07-17 19:52:00,91.9,40.9,29.56,NE,45,0.0,0.0,17,0.00,,,0.00,VWS V13.01,2013-07-18 00:52:00,
2013-07-17 19:57:00,91.4,40.5,29.56,NE,45,0.0,0.0,17,0.00,,,0.00,VWS V13.01,2013-07-18 00:57:00,
2013-07-17 20:02:00,91.0,41.7,29.56,NE,45,0.0,0.0,18,0.00,,,0.00,VWS V13.01,2013-07-18 01:02:00,
2013-07-17 20:07:00,90.5,41.3,29.56,NE,45,0.0,0.0,18,0.00,,,0.00,VWS V13.01,2013-07-18 01:07:00,
2013-07-17 20:12:00,90.0,42.2,29.56,NE,45,0.0,0.0,19,0.00,,,0.00,VWS V13.01,2013-07-18 01:12:00,
2013-07-17 20:17:00,89.2,44.2,29.56,NE,45,0.0,0.0,21,0.00,,,0.00,VWS V13.01,2013-07-18 01:17:00,
2013-07-17 20:22:00,88.7,46.2,29.56,NE,45,0.0,0.0,23,0.00,,,0.00,VWS V13.01,2013-07-18 01:22:00,
2013-07-17 20:27:00,88.3,49.1,29.56,NE,45,0.0,0.0,26,0.00,,,0.00,VWS V13.01,2013-07-18 01:27:00,
2013-07-17 20:32:00,87.8,49.7,29.56,NE,45,0.0,0.0,27,0.00,,,0.00,VWS V13.01,2013-07-18 01:32:00,
2013-07-17 20:37:00,87.3,50.2,29.56,NE,45,0.0,0.0,28,0.00,,,0.00,VWS V13.01,2013-07-18 01:37:00,
2013-07-17 20:42:00,86.9,50.8,29.56,NE,45,0.0,0.0,29,0.00,,,0.00,VWS V13.01,2013-07-18 01:42:00,
2013-07-17 20:47:00,86.7,50.7,29.56,NE,45,0.0,0.0,29,0.00,,,0.00,VWS V13.01,2013-07-18 01:47:00,
2013-07-17 20:53:00,86.4,50.4,29.56,NE,45,0.0,0.0,29,0.00,,,0.00,VWS V13.01,2013-07-18 01:53:00,
2013-07-17 20:58:00,86.0,51.0,29.56,NE,45,0.0,0.0,30,0.00,,,0.00,VWS V13.01,2013-07-18 01:58:00,
2013-07-17 21:03:00,85.8,52.6,29.56,NE,45,0.0,0.0,32,0.00,,,0.00,VWS V13.01,2013-07-18 02:03:00,
2013-07-17 21:08:00,85.8,53.4,29.56,NE,45,0.0,0.0,33,0.00,,,0.00,VWS V13.01,2013-07-18 02:08:00,
2013-07-17 21:13:00,85.6,54.1,29.56,NE,45,0.0,0.0,34,0.00,,,0.00,VWS V13.01,2013-07-18 02:13:00,
2013-07-17 21:18:00,85.3,53.8,29.56,NE,45,0.0,0.0,34,0.00,,,0.00,VWS V13.01,2013-07-18 02:18:00,
2013-07-17 21:23:00,85.1,55.9,29.56,NE,45,0.0,0.0,37,0.00,,,0.00,VWS V13.01,2013-07-18 02:23:00,
2013-07-17 21:28:00,85.1,56.7,29.56,NE,45,0.0,0.0,38,0.00,,,0.00,VWS V13.01,2013-07-18 02:28:00,
2013-07-17 21:33:00,85.1,58.1,29.56,NE,45,0.0,0.0,40,0.00,,,0.00,VWS V13.01,2013-07-18 02:33:00,
2013-07-17 21:38:00,84.9,58.6,29.56,NE,45,0.0,0.0,41,0.00,,,0.00,VWS V13.01,2013-07-18 02:38:00,
2013-07-17 21:43:00,84.7,58.5,29.56,NE,45,0.0,0.0,41,0.00,,,0.00,VWS V13.01,2013-07-18 02:43:00,
2013-07-17 21:48:00,84.7,59.1,29.56,NE,45,0.0,0.0,42,0.00,,,0.00,VWS V13.01,2013-07-18 02:48:00,
2013-07-17 21:53:00,84.7,59.8,29.56,NE,45,0.0,0.0,43,0.00,,,0.00,VWS V13.01,2013-07-18 02:53:00,
2013-07-17 21:58:00,84.7,60.4,29.56,East,90,0.0,0.0,44,0.00,,,0.00,VWS V13.01,2013-07-18 02:58:00,
2013-07-17 22:03:00,84.4,60.1,29.56,East,90,0.0,0.0,44,0.00,,,0.00,VWS V13.01,2013-07-18 03:03:00,
2013-07-17 22:08:00,84.4,60.1,29.56,East,90,0.0,0.0,44,0.00,,,0.00,VWS V13.01,2013-07-18 03:08:00,
2013-07-17 22:13:00,84.4,60.1,29.56,East,90,0.0,0.0,44,0.00,,,0.00,VWS V13.01,2013-07-18 03:13:00,
2013-07-17 22:18:00,84.2,60.0,29.56,East,90,0.0,0.0,44,0.00,,,0.00,VWS V13.01,2013-07-18 03:18:00,
2013-07-17 22:23:00,84.2,60.0,29.59,East,90,0.0,0.0,44,0.00,,,0.00,VWS V13.01,2013-07-18 03:23:00,
2013-07-17 22:28:00,84.2,60.0,29.59,East,90,0.0,0.0,44,0.00,,,0.00,VWS V13.01,2013-07-18 03:28:00,
2013-07-17 22:33:00,84.0,60.4,29.59,East,90,0.0,0.0,45,0.00,,,0.00,VWS V13.01,2013-07-18 03:33:00,
2013-07-17 22:38:00,83.8,60.2,29.56,East,90,0.0,0.0,45,0.00,,,0.00,VWS V13.01,2013-07-18 03:38:00,
2013-07-17 22:43:00,83.7,60.1,29.56,East,90,0.0,0.0,45,0.00,,,0.00,VWS V13.01,2013-07-18 03:43:00,
2013-07-17 22:48:00,83.7,60.7,29.56,East,90,0.0,0.0,46,0.00,,,0.00,VWS V13.01,2013-07-18 03:48:00,
2013-07-17 22:53:00,83.7,60.7,29.56,East,90,0.0,0.0,46,0.00,,,0.00,VWS V13.01,2013-07-18 03:53:00,
2013-07-17 22:59:00,83.3,60.4,29.56,East,90,0.0,0.0,46,0.00,,,0.00,VWS V13.01,2013-07-18 03:59:00,
2013-07-17 23:01:00,83.3,60.4,29.56,East,90,0.0,0.0,46,0.00,,,0.00,VWS V13.01,2013-07-18 04:01:00,
2013-07-17 23:02:00,83.3,61.0,29.56,East,90,0.0,0.0,47,0.00,,,0.00,VWS V13.01,2013-07-18 04:02:00,
2013-07-17 23:03:00,83.3,61.0,29.56,East,90,0.0,0.0,47,0.00,,,0.00,VWS V13.01,2013-07-18 04:03:00,
2013-07-17 23:08:00,83.3,61.0,29.56,East,90,0.0,0.0,47,0.00,,,0.00,VWS V13.01,2013-07-18 04:08:00,
2013-07-17 23:13:00,82.9,60.7,29.56,East,90,0.0,0.0,47,0.00,,,0.00,VWS V13.01,2013-07-18 04:13:00,
2013-07-17 23:18:00,82.9,60.7,29.56,East,90,0.0,0.0,47,0.00,,,0.00,VWS V13.01,2013-07-18 04:18:00,
2013-07-17 23:23:00,82.8,61.1,29.56,East,90,0.0,0.0,48,0.00,,,0.00,VWS V13.01,2013-07-18 04:23:00,
2013-07-17 23:28:00,82.4,60.8,29.56,East,90,0.0,0.0,48,0.00,,,0.00,VWS V13.01,2013-07-18 04:28:00,
2013-07-17 23:33:00,82.4,60.8,29.56,East,90,0.0,0.0,48,0.00,,,0.00,VWS V13.01,2013-07-18 04:33:00,
2013-07-17 23:38:00,82.2,61.2,29.56,East,90,0.0,0.0,49,0.00,,,0.00,VWS V13.01,2013-07-18 04:38:00,
2013-07-17 23:43:00,82.2,61.2,29.56,East,90,0.0,0.0,49,0.00,,,0.00,VWS V13.01,2013-07-18 04:43:00,
2013-07-17 23:48:00,82.2,61.8,29.56,East,90,0.0,0.0,50,0.00,,,0.00,VWS V13.01,2013-07-18 04:48:00,
2013-07-17 23:53:00,82.2,61.2,29.59,East,90,0.0,0.0,49,0.00,,,0.00,VWS V13.01,2013-07-18 04:53:00,
2013-07-17 23:58:00,82.0,61.0,29.59,East,90,0.0,0.0,49,0.00,,,0.00,VWS V13.01,2013-07-18 04:58:00,